Find Starlink 33814

NORAD ID: 63582 Int'l Des: 2025-076 Owner: SPXS Country: US Constellation: starlink operational
LEOCIRCULAR

Live-Position

3D-Globus wird geladen...

Über Starlink 33814

Beschreibung wird geladen...

Nächste Überflüge

Passes for default location (London). Set your location on the main map for personalized predictions.

Höhenverlauf

Loading altitude history...

Zweizeiliger Elementsatz

1 63582U 25076P 26127.01598076 .00015875 00000-0 58545-3 0 9994
2 63582 43.0049 352.0409 0001801 282.2761 77.7889 15.27563613 60750
Epoch: 7. Mai 2026 • Age: 8 hours

Aktueller Status

Höhe 485.7 km
Geschwindigkeit 7.62 km/s
Subsatellitenpunkt -16.90°S, 15.68°W
Startdatum 14. Apr. 2025
Alter 1 years
Typ internet

Technische Details

Klassifizierung Payload
Masse 575.00 kg
Trockenmasse 530.00 kg
Gesamtmasse 575.00 kg
Länge 0.30 m
Durchmesser 4.10 m
Spannweite 29.00 m
Form Box + pan
Hersteller SPXS
Bus-Typ Starlink V2MO
Phasenstatus In Orbit
Besitzer/Staat SPXS/US

Most Searched